Flag for U.S.A. Weather past 2 weeks in Columbus, Georgia, U.S.A.

Now
81 °F

Sunny.


Feels Like: 85 °F
Forecast: 70 / 88 °F
Wind: 5 mph from Southwest

Location: Columbus Metropolitan Airport

Current Time: Jul 10, 2014 at 8:30:08 PM

Latest Report: Jul 10, 2014 at 7:51 PM


Visibility: 10 mi

Pressure: 30.04 "Hg

Humidity: 69%

Dew point: 70 °F

Location of ColumbusLocation

Historic Weather in Columbus — Graph

°F

Columbus temperature yesterday

Maximum temperature yesterday: 93 °F (at 4:51 PM)
Minimum temperature yesterday: 73 °F (at 9:51 PM)
Average temperature yesterday: 82 °F

Past Weeks' High & Low Weather Summary

 TemperatureHumidityPressure
High95 °F (Jul 2, 5:51 PM)97% (Jul 1, 2:51 AM)30.19 "Hg (Jul 1, 2:51 AM)
Low67 °F (Jul 4, 6:51 AM)30% (Jul 8, 2:51 PM)29.89 "Hg (Jul 1, 9:51 PM)
Average81 °F64%30.03 "Hg
* Reported Jun 25 6:51 PM — Jul 10 6:51 PM, Columbus, Weather by CustomWeather, © 2014

Note: Actual official high and low records may vary slightly from our data, if they occured in-between our weather recording intervals... More about our weather records

Advertising

Columbus weather history for previous 24 hours

 ConditionsComfort  
Time TempWeatherWind HumidityBarometerVisibility
6:51 PM
Jul 10
81 °FSunny.6 mph69%30.02 "Hg10 mi
5:51 PM83 °FSunny.6 mph68%30.01 "Hg10 mi
4:51 PM84 °FSunny.9 mph61%30.02 "Hg10 mi
3:51 PM87 °FSunny.8 mph55%30.02 "Hg10 mi
2:51 PM86 °FPartly sunny.7 mph61%30.05 "Hg10 mi
1:51 PM86 °FScattered clouds.6 mph61%30.06 "Hg10 mi
12:51 PM82 °FPassing clouds.No wind74%30.08 "Hg9 mi
11:51 AM77 °FOvercast.No wind85%30.10 "Hg8 mi
10:51 AM76 °FLow clouds.No wind85%30.09 "Hg8 mi
9:51 AM74 °FLow clouds.3 mph91%30.09 "Hg9 mi
9:00 AM72 °FLow clouds.No wind94%30.10 "Hg9 mi
7:51 AM72 °FLight rain. Low clouds.No wind93%30.08 "Hg9 mi
6:51 AM72 °FLow clouds.5 mph93%30.05 "Hg10 mi
5:51 AM71 °FPassing clouds.No wind93%30.03 "Hg10 mi
4:51 AM71 °FPassing clouds.No wind96%30.02 "Hg10 mi
3:51 AM72 °FPassing clouds.No wind93%30.03 "Hg10 mi
2:51 AM72 °FPassing clouds.No wind93%30.04 "Hg10 mi
1:51 AM72 °FClear.No wind91%30.04 "Hg10 mi
12:51 AM73 °FMostly cloudy.5 mph90%30.05 "Hg10 mi
11:51 PM
Jul 9
73 °FPassing clouds.3 mph94%30.04 "Hg10 mi
10:51 PM73 °FClear.No wind94%30.03 "Hg10 mi
9:51 PM73 °FPassing clouds.No wind90%30.04 "Hg10 mi
8:51 PM74 °FBroken clouds.No wind88%30.03 "Hg10 mi
Weather by CustomWeather, © 2014

See weather overviewHow to use our weather pages